EDT,Max TemperatureF,Mean TemperatureF,Min TemperatureF,Max Dew PointF,MeanDew PointF,Min DewpointF,Max Humidity, Mean Humidity, Min Humidity, Max Sea Level PressureIn, Mean Sea Level PressureIn, Min Sea Level PressureIn, Max VisibilityMiles, Mean VisibilityMiles, Min VisibilityMiles, Max Wind SpeedMPH, Mean Wind SpeedMPH, Max Gust SpeedMPH,PrecipitationIn, CloudCover, Events, WindDirDegrees
2013-4-1,26,22,19,19,14,8,86,71,49,30.02,29.88,29.67,10,8,0,24,15,34,0.02,6,Snow,299
2013-4-2,29,24,19,19,14,5,87,66,38,30.20,30.08,29.99,10,9,1,20,12,26,0.00,4,Snow,294
2013-4-3,33,26,20,23,15,6,75,60,33,30.37,30.29,30.19,10,10,10,16,10,25,0.03,0,,272
2013-4-4,39,34,29,34,26,14,95,75,49,30.21,30.00,29.90,10,7,0,22,11,37,0.00,6,Snow,238
2013-4-5,36,32,28,28,17,8,83,56,31,30.20,30.13,29.98,10,10,10,15,8,21,0.00,1,,317
2013-4-6,35,30,25,32,25,17,93,79,62,30.20,30.00,29.59,10,8,0,20,7,30,0.06,6,Snow,123
2013-4-7,40,37,33,38,32,28,95,82,66,30.04,29.72,29.39,10,8,0,16,9,23,0.02,8,Fog-Snow,293
2013-4-8,37,34,32,34,31,28,96,86,76,30.04,29.94,29.83,10,8,1,18,8,26,0.05,4,Snow,92
2013-4-9,41,37,33,37,34,32,97,90,81,30.10,30.05,30.00,10,7,2,10,3,20,0.00,8,Snow,351
2013-4-10,43,38,32,32,28,20,94,72,45,30.15,30.10,30.05,10,10,10,14,7,,0.00,3,,30
2013-4-11,36,32,29,28,19,14,92,60,50,30.18,30.05,29.91,10,9,1,24,14,39,0.01,4,Snow,79
2013-4-12,32,30,28,30,28,26,92,89,83,29.89,29.69,29.63,10,3,0,29,19,44,0.07,8,Snow,75
2013-4-13,35,32,30,32,30,28,95,89,77,29.87,29.72,29.67,10,7,1,15,6,28,0.00,7,Snow,266
2013-4-14,40,36,31,30,27,23,87,75,52,30.07,29.99,29.87,10,10,10,16,9,25,0.00,6,,242
2013-4-15,50,42,35,49,39,30,96,89,79,29.98,29.82,29.75,10,8,2,23,14,38,0.15,7,Rain-Snow,142
2013-4-16,45,40,33,36,32,28,92,74,55,30.31,30.03,29.82,10,10,10,20,10,25,0.00,1,,265
2013-4-17,39,34,29,32,31,28,96,84,69,30.42,30.32,30.13,10,10,7,16,8,24,0.00,2,,68
2013-4-18,40,38,36,39,37,32,97,94,80,30.11,29.71,29.41,10,3,0,22,12,32,0.37,8,Fog-Snow,91
2013-4-19,42,35,28,42,32,21,97,82,66,29.57,29.30,29.18,10,7,0,32,17,52,0.19,8,Fog-Rain-Snow,231
2013-4-20,34,28,21,24,16,12,86,62,43,30.43,30.09,29.58,10,9,1,21,13,32,0.00,6,Snow,303
2013-4-21,38,29,20,31,23,16,85,72,49,30.59,30.49,30.37,10,10,10,17,6,26,0.00,2,,106
2013-4-22,47,42,36,34,30,25,82,66,46,30.36,30.25,30.13,10,10,10,14,8,23,0.00,3,,120
2013-4-23,52,43,33,42,35,30,96,77,52,30.12,29.93,29.84,10,8,1,16,9,25,0.14,5,Rain-Snow,193
2013-4-24,45,38,32,32,27,16,92,69,31,29.98,29.89,29.86,10,10,10,15,8,23,0.00,4,,305
2013-4-25,44,39,34,34,29,23,88,70,53,30.25,30.01,29.87,10,10,3,26,10,37,0.00,5,Snow,221
2013-4-26,49,42,35,41,32,28,89,72,43,30.31,30.25,30.16,10,10,3,15,8,25,0.04,3,Rain,154
2013-4-27,58,48,39,46,42,37,93,75,61,30.21,30.17,30.09,10,10,5,12,6,17,0.01,2,Rain,186
2013-4-28,58,48,37,46,38,34,92,72,54,30.08,29.95,29.82,10,10,5,20,7,26,0.00,3,,116
2013-4-29,57,50,43,53,46,42,96,87,70,29.87,29.85,29.83,10,7,1,13,7,21,0.00,4,Rain,127
2013-4-30,71,55,39,57,47,38,97,85,52,29.89,29.85,29.78,10,6,0,17,9,31,0.04,5,Fog-Rain,127